Language selection

My Weather Profile Weather Topics  | 

Hudson - Hudson Bay: Past 24 Hour Conditions

 

Churchill Airport

03:00 AM CST 06 December 2021
Disclaimer

This table is a summary of hourly weather conditions for the past 24 hours.
Please note that these observations might not always be representative of weather conditions over their associated marine area.

Date / Time
(CST)
Wind(knots) Conditions Visibility(km) Pressure(kPa) Air tempC) Relative humidity(%) Dew pointC) Wind Chill
06 December 2021
3:00 W 10 gust 16 Ice Crystals 24 101.6 -29 72 -33 -42
2:00 W 8 Ice Crystals 24 101.6 -31 72 -34 -42
1:00 W 11 Partly Cloudy 24 101.6 -31 73 -35 -45
0:00 W 8 Clear 24 101.6 -31 72 -34 -42
05 December 2021
23:00 W 11 Clear 24 101.6 -30 72 -34 -43
22:00 W 11 Clear 24 101.6 -30 70 -34 -44
21:00 W 10 gust 16 Clear 24 101.7 -30 68 -34 -42
20:00 WNW 10 gust 17 Clear 24 101.7 -29 67 -33 -41
19:00 WNW 13 gust 19 Clear 24 101.7 -29 66 -33 -43
18:00 W 13 gust 18 Clear 24 101.8 -29 66 -33 -43
17:00 W 13 Clear 24 101.8 -29 66 -33 -43
16:00 WNW 12 Mainly Clear 24 101.7 -28 66 -33 -42
15:00 WNW 11 gust 16 Mainly Sunny 24 101.7 -28 66 -32 -40
14:00 WNW 14 Mainly Sunny 24 101.7 -28 66 -32 -42
13:00 WNW 13 gust 19 Mainly Sunny 24 101.7 -27 68 -31 -41
12:00 WNW 17 Mainly Sunny 24 101.6 -27 72 -31 -42
11:00 WNW 12 Mainly Sunny 24 101.7 -28 71 -31 -41
10:00 WNW 11 Mainly Sunny 24 101.6 -29 70 -32 -42
9:00 WNW 11 gust 16 Mainly Sunny 24 101.6 -29 71 -32 -42
8:00 WNW 12 Mainly Clear 24 101.6 -29 71 -32 -42
7:00 WNW 12 Ice Crystals 24 101.6 -28 71 -32 -42
6:00 WNW 11 Ice Crystals 24 101.6 -28 73 -31 -41
5:00 WNW 13 Ice Crystals 24 101.6 -27 71 -31 -41
4:00 WNW 14 Light Snow 24 101.5 -26 72 -30 -40
3:00 WNW 14 gust 21 Light Snow 24 101.5 -26 72 -29 -39

Zoom-in to make a selection

Map of Hudson - Hudson Bay marine weather areas Arviat Airport Baker Lake Airport Chesterfield Inlet Airport Coral Harbour Airport Rankin Inlet Airport Sanikiluaq Airport Whale Cove Airport Kinngait (Cape Dorset Airport) Iqaluit Airport Wager Bay Kimmirut Airport Churchill Airport Fort Severn Airport Peawanuck Airport Moosonee Airport Eastmain Airport La Grande Rivière Airport Waskaganish Airport Wemindji Airport Akulivik Airport Inukjuak Airport Ivujivik Airport Kuujjuarapik Airport Puvirnituq Airport Umiujaq Airport Aupaluk Airport Kangiqsujuaq Airport Kangirsuk Airport Kangiqsualujjuaq Airport Kuujjuaq Airport Quaqtaq Airport Salluit Airport Tasiujaq Airport Cape Kakkiviak
Legend:
buoy Buoy
land station Land Station

Hudson - Hudson Bay Area

Another Region

What we are doing

Features

Hello Weather

Hello Weather: our upgraded telephone weather service is here. 1-833-794-3556 or 1-833-79HELLO.

Date modified: